Location: 22
(39.7117°N, 89.5929°W)
Time: 18:35:34
(UTC-05:00)

Gurwin Techsat 1B - Pass Details

Date: 03 April 2023
Orbit: 811 x 813 km, 98.9° (Epoch: 06 June)

Event Time Altitude Azimuth Distance (km) Brightness Sun altitude
Rises 04:41:18 0° 4° (N) 3,346 12.3 -22.4°
Reaches altitude 10° 04:43:49 10° 356° (N) 2,410 11.3 -22.0°
Maximum altitude 04:48:36 35° 292° (WNW) 1,293 9.3 -21.2°
Enters shadow 04:48:53 35° 285° (WNW) 1,298 9.3 -21.1°
